ATLAS 5 CENTAUR DEB, 43988

Orbit data source: Space-Track

ATLAS 5 CENTAUR DEB, 43988 is space debris in HEO originally from a launch on Wed, 17 Sep 2014 UTC launched from the Air Force Eastern Test Range (AFETR). Debris objects in space refer to the collection of defunct objects orbiting the Earth. Examples of debris include non-operational satellites, rocket bodies, and fragments generated from explosions, collisions, or faulty payload assembly.

Loading next visibility...
Identifier
43988, 2014-055AT
Orbit
HEO
Country
Flag of USUS
Related business
Flag of USUnited Launch Alliance/Lockheed Martin (US)
Manufacturer
Unknown
Mission
Spacecraft
Bus & Motor
Unknown
Mass
Unknown
Launch date (UTC)
2014-09-17 (11 years ago)
Launch vehicle
Unknown
Launch site
Air Force Eastern Test Range (AFETR)
Object type
Payload
Rocket body
Debris
Shape & HBR
Unknown shape, 1.1 m
Radar Cross Section
Small (<0.1 m²)

Expand to show TLE details & history
Last TLE update: 1 month ago

TLE from 1 month ago
0 ATLAS 5 CENTAUR DEB
1 43988U 14055AT  25258.12100006 -.00000055  00000-0  00000-0 0  9990
2 43988  19.7415 165.1324 4829093 127.8602 286.4178  1.87310508 48207
Epoch: 2025-09-15T02:54Z
TLE epoch observation values (Epoch: 2025-09-15T02:54:14.405Z)
Latitude
0.00002°
Longitude
127.21222°
Altitude
23,946.829 km
Speed
3.457 km/s
True Right ascension
11h 00m 24s
True Declination
0° 00' 00"
Sunlit
Object was in daylight at epoch
Visualization orbit readout
Latitude
Unknown
Longitude
Unknown
Altitude
Unknown
Speed
Unknown
Apparent Right ascension
Unknown
Apparent Declination
Unknown
Sunlit
N/A
Visualization observer readout
Local Sidereal Time
17:04:16
Azimuth
Unknown
Elevation
Unknown
Doppler factor
Unknown
Orbital elements
Apogee altitude
34,847.985 km
Perigee altitude
7,997.418 km
Semi-major axis
27,800.839 km
Eccentricity
0.48291
Inclination
19.7415°
RAAN
165.1324°
Arg. of periapsis
127.8602°
True anomaly
232.10093°
Mean anomaly
286.4178°
Eccentric anomaly
259.23597°
Mean motion
0.46823 °/min
Orbital period
768.86 mins
BSTAR
0
Loading maneuver chart data...
Computing Atmospheric mass density...

Documentation

Showing up to 5 results
|